Weather History for Cheyenne, WY

Change the Weather History Date:

Friday, August 2, 2013

  Actual Average Record
Temperature  
Mean Temperature 73 °F 70 °F  
Max Temperature 91 °F 83 °F 98 °F (2008)
Min Temperature 55 °F 56 °F 42 °F (1898)
Degree Days  
Heating Degree Days 0 1  
Month to date heating degree days 0 2  
Since 1 June heating degree days 69 158  
Since 1 July heating degree days 7 24  
Cooling Degree Days 8 5  
Month to date cooling degree days 16 10  
Year to date cooling degree days 299 220  
Since 1 June cooling degree days 293 217  
Growing Degree Days 23 (Base 50)    
Moisture  
Dew Point 48 °F    
Average Humidity 49    
Maximum Humidity 81    
Minimum Humidity 16    
Precipitation  
Precipitation 0.00 in 0.08 in 1.61 in (1894)
Month to date precipitation T 0.16  
Year to date precipitation 7.24 10.66  
Snow  
Snow 0.00 in 0.00 in 0.50 in (1993)
Month to date snowfall 0.0 0.0  
Since 1 July snowfall 0.0 0.0  
Snow Depth 0.00 in    
Sea Level Pressure  
Sea Level Pressure 29.85 in    
Wind  
Wind Speed 11 mph (SW)    
Max Wind Speed 23 mph    
Max Gust Speed 29 mph    
Visibility 10 miles    
Events Thunderstorm    
T = Trace of Precipitation, MM = Missing Value Source: NWS Daily Summary

Daily Weather History Graph

Daily Weather History Graph

Search for Another Location

Airport:

Trip Planner

Search our weather history database for the weather conditions in past years. The results will help you decide how hot, cold, wet, or windy it might be!

Date:

Astronomy

Aug. 02, 2013 Rise Set
Actual Time 5:56 AM MDT 8:14 PM MDT
Civil Twilight 5:25 AM MDT 8:44 PM MDT
Nautical Twilight 4:47 AM MDT 9:22 PM MDT
Astronomical Twilight 4:04 AM MDT 10:04 PM MDT
Moon 2:18 AM MDT (8/2) 5:14 PM MDT (8/2)
Length of Visible Light 15h 19m
Length of Day
14h 18m
Waning Crescent, 15% of the Moon is Illuminated
Aug 2
Waning Crescent
Aug 6
New
Aug 14
First Quarter
Aug 20
Full
Aug 28
Last Quarter

Hourly Weather History & Observations

Time (MDT) Temp. Dew Point Humidity Pressure Visibility Wind Dir Wind Speed Gust Speed Precip Events Conditions
12:53 AM 63.0 °F 46.0 °F 54% 29.79 in 10.0 mi SSW 5.8 mph - N/A   Clear
1:53 AM 61.0 °F 46.9 °F 60% 29.78 in 10.0 mi SW 8.1 mph - N/A   Clear
2:53 AM 63.0 °F 45.0 °F 52% 29.79 in 10.0 mi WNW 4.6 mph - N/A   Clear
3:53 AM 57.9 °F 46.9 °F 67% 29.82 in 10.0 mi ESE 3.5 mph - N/A   Clear
4:53 AM 57.0 °F 48.0 °F 72% 29.86 in 10.0 mi NNW 4.6 mph - N/A   Clear
5:53 AM 57.0 °F 46.9 °F 69% 29.86 in 10.0 mi WNW 3.5 mph - N/A   Clear
6:53 AM 64.0 °F 46.9 °F 54% 29.83 in 10.0 mi West 6.9 mph - N/A   Scattered Clouds
7:53 AM 71.1 °F 46.9 °F 42% 29.83 in 10.0 mi WSW 3.5 mph - N/A   Partly Cloudy
8:53 AM 77.0 °F 46.9 °F 34% 29.82 in 10.0 mi West 16.1 mph - N/A   Clear
9:53 AM 79.0 °F 46.0 °F 31% 29.82 in 10.0 mi West 20.7 mph 24.2 mph N/A   Clear
10:53 AM 84.0 °F 44.1 °F 25% 29.83 in 10.0 mi West 18.4 mph 25.3 mph N/A   Clear
11:53 AM 84.9 °F 37.9 °F 19% 29.82 in 10.0 mi NW 19.6 mph 27.6 mph N/A   Partly Cloudy
12:53 PM 86.0 °F 37.0 °F 18% 29.81 in 10.0 mi WNW 15.0 mph 26.5 mph N/A   Scattered Clouds
1:53 PM 90.0 °F 37.0 °F 15% 29.81 in 10.0 mi West 16.1 mph 21.9 mph N/A   Scattered Clouds
2:53 PM 86.0 °F 37.0 °F 18% 29.81 in 10.0 mi Variable 3.5 mph - N/A   Mostly Cloudy
3:53 PM 87.1 °F 37.0 °F 17% 29.81 in 10.0 mi North 8.1 mph - N/A   Mostly Cloudy
4:53 PM 79.0 °F 53.1 °F 40% 29.85 in 10.0 mi East 17.3 mph 23.0 mph N/A   Scattered Clouds
5:38 PM 80.6 °F 50.0 °F 34% 30.10 in 10.0 mi East 10.4 mph - N/A Thunderstorm Clear
5:53 PM 81.0 °F 52.0 °F 36% 29.84 in 10.0 mi East 13.8 mph 20.7 mph N/A Thunderstorm Clear
6:01 PM 80.6 °F 51.8 °F 37% 30.10 in 10.0 mi East 13.8 mph 21.9 mph N/A   Clear
6:53 PM 78.1 °F 53.1 °F 42% 29.85 in 10.0 mi SE 15.0 mph - N/A   Clear
7:53 PM 73.0 °F 57.0 °F 57% 29.86 in 10.0 mi SE 13.8 mph 23.0 mph N/A   Clear
8:53 PM 70.0 °F 59.0 °F 68% 29.88 in 10.0 mi SE 11.5 mph - N/A   Clear
9:53 PM 66.9 °F 60.1 °F 79% 29.91 in 10.0 mi SSE 10.4 mph - N/A   Scattered Clouds
10:53 PM 66.0 °F 55.9 °F 70% 29.89 in 10.0 mi SSW 6.9 mph - N/A   Clear
11:53 PM 66.0 °F 54.0 °F 65% 29.88 in 10.0 mi South 6.9 mph - N/A   Clear